User: anonymous   Login
Location: Observatorio Las Palmas
(29.0667°N, 110.9333°W)
Time: 14:54:45
(UTC-07:00)
Language:

NOAA 19 - Orbit

View from above orbital plane
View from above orbital plane
View from above satellite
View from above satellite

Ground track
Ground track

The orbit data is extracted from the following two-line orbital elements,

1 33591U 09005A   16126.50254668  .00000090  00000-0  73950-4 0  9994
2 33591  99.0364  82.9347 0013748 343.8292  16.2439 14.12068434373114
Epoch (UTC): 05 May 2016 12:03:40
Eccentricity: 0.0013748
inclination: 99.0364°
perigee height: 842 km
apogee height: 862 km
right ascension of ascending node: 82.9347°
argument of perigee: 343.8292°
revolutions per day: 14.12068434
mean anomaly at epoch: 16.2439°
orbit number at epoch: 37311

The dashed part of the orbit path shows where the satellite is in the earth's shadow,  

DLR